Time,TemperatureF,DewpointF,PressureIn,WindDirection,WindDirectionDegrees,WindSpeedMPH,WindSpeedGustMPH,Humidity,HourlyPrecipIn,Conditions,Clouds,dailyrainin,SoftwareType,DateUTC
2013-12-04 00:00:00,49.3,46.2,29.17,SSE,166,1.0,1.0,89,0.00,,,0.00,Wunderground v.1.15,2013-12-04 06:00:00,
2013-12-04 00:06:00,49.1,46.0,29.17,SSE,165,1.0,5.0,89,0.00,,,0.00,Wunderground v.1.15,2013-12-04 06:06:00,
2013-12-04 00:11:00,49.0,45.9,29.17,SSE,164,1.0,1.0,89,0.00,,,0.00,Wunderground v.1.15,2013-12-04 06:11:00,
2013-12-04 00:17:00,48.9,46.1,29.16,SSE,165,2.0,8.0,90,0.00,,,0.00,Wunderground v.1.15,2013-12-04 06:17:00,
2013-12-04 00:22:00,48.9,46.1,29.16,SSE,163,2.0,7.0,90,0.00,,,0.00,Wunderground v.1.15,2013-12-04 06:22:00,
2013-12-04 00:28:00,48.9,46.1,29.16,SSE,165,2.0,7.0,90,0.00,,,0.00,Wunderground v.1.15,2013-12-04 06:28:00,
2013-12-04 00:33:00,49.1,46.3,29.15,SSE,155,3.0,6.0,90,0.00,,,0.00,Wunderground v.1.15,2013-12-04 06:33:00,
2013-12-04 00:39:00,-19.9,-22.1,29.16,South,175,5.0,9.0,89,0.00,,,0.00,Wunderground v.1.15,2013-12-04 06:39:00,
2013-12-04 00:44:00,49.6,46.8,29.15,SSE,166,5.0,9.0,90,0.00,,,0.00,Wunderground v.1.15,2013-12-04 06:44:00,
2013-12-04 00:50:00,49.7,46.9,29.15,SSE,153,5.0,7.0,90,0.00,,,0.00,Wunderground v.1.15,2013-12-04 06:50:00,
2013-12-04 00:56:00,49.8,47.0,29.15,South,169,6.0,9.0,90,0.00,,,0.00,Wunderground v.1.15,2013-12-04 06:56:00,
2013-12-04 01:01:00,49.9,47.4,29.15,SSE,167,6.0,6.0,91,0.00,,,0.00,Wunderground v.1.15,2013-12-04 07:01:00,
2013-12-04 01:07:00,50.0,47.5,29.15,SSE,166,5.0,8.0,91,0.00,,,0.00,Wunderground v.1.15,2013-12-04 07:07:00,
2013-12-04 01:12:00,50.0,47.5,29.15,SSE,165,4.0,6.0,91,0.00,,,0.00,Wunderground v.1.15,2013-12-04 07:12:00,
2013-12-04 01:18:00,50.2,47.4,29.15,South,178,3.0,6.0,90,0.00,,,0.00,Wunderground v.1.15,2013-12-04 07:18:00,
2013-12-04 01:23:00,50.3,47.5,29.15,SSE,163,2.0,7.0,90,0.00,,,0.00,Wunderground v.1.15,2013-12-04 07:23:00,
2013-12-04 01:29:00,50.5,48.0,29.15,South,184,3.0,9.0,91,0.00,,,0.00,Wunderground v.1.15,2013-12-04 07:29:00,
2013-12-04 01:34:00,50.6,48.1,29.15,South,184,2.0,3.0,91,0.00,,,0.00,Wunderground v.1.15,2013-12-04 07:34:00,
2013-12-04 01:40:00,50.7,48.2,29.15,South,186,1.0,2.0,91,0.00,,,0.00,Wunderground v.1.15,2013-12-04 07:40:00,
2013-12-04 01:45:00,50.7,48.2,29.15,South,181,1.0,3.0,91,0.00,,,0.00,Wunderground v.1.15,2013-12-04 07:45:00,
2013-12-04 01:51:00,50.8,48.3,29.15,South,183,1.0,1.0,91,0.00,,,0.00,Wunderground v.1.15,2013-12-04 07:51:00,
2013-12-04 01:56:00,50.8,48.0,29.15,South,183,0.0,3.0,90,0.00,,,0.00,Wunderground v.1.15,2013-12-04 07:56:00,
2013-12-04 02:02:00,50.8,48.3,29.15,South,182,0.0,0.0,91,0.00,,,0.00,Wunderground v.1.15,2013-12-04 08:02:00,
2013-12-04 02:08:00,50.8,48.0,29.15,South,181,0.0,0.0,90,0.00,,,0.00,Wunderground v.1.15,2013-12-04 08:08:00,
2013-12-04 02:13:00,50.9,48.1,29.15,South,181,0.0,0.0,90,0.00,,,0.00,Wunderground v.1.15,2013-12-04 08:13:00,
2013-12-04 02:19:00,50.9,-99.9,29.15,South,181,0.0,0.0,255,0.00,,,0.00,Wunderground v.1.15,2013-12-04 08:19:00,
2013-12-04 02:25:00,50.8,48.0,29.15,South,181,0.0,0.0,90,0.00,,,0.00,Wunderground v.1.15,2013-12-04 08:25:00,
2013-12-04 02:30:00,50.6,47.8,29.14,South,181,0.0,0.0,90,0.00,,,0.00,Wunderground v.1.15,2013-12-04 08:30:00,
2013-12-04 02:36:00,51.3,48.5,29.14,South,181,0.0,0.0,90,0.00,,,0.00,Wunderground v.1.15,2013-12-04 08:36:00,
2013-12-04 02:41:00,50.4,47.9,29.14,South,181,0.0,0.0,91,0.00,,,0.00,Wunderground v.1.15,2013-12-04 08:41:00,
2013-12-04 02:47:00,50.4,47.6,29.14,South,181,0.0,0.0,90,0.00,,,0.00,Wunderground v.1.15,2013-12-04 08:47:00,
2013-12-04 02:52:00,50.3,47.8,29.14,South,181,0.0,0.0,91,0.00,,,0.00,Wunderground v.1.15,2013-12-04 08:52:00,
2013-12-04 02:58:00,50.3,47.8,29.14,South,181,0.0,0.0,91,0.00,,,0.00,Wunderground v.1.15,2013-12-04 08:58:00,
2013-12-04 03:03:00,50.3,47.8,29.14,South,181,0.0,0.0,91,0.00,,,0.00,Wunderground v.1.15,2013-12-04 09:03:00,
2013-12-04 03:09:00,50.2,47.7,29.14,South,181,0.0,0.0,91,0.00,,,0.00,Wunderground v.1.15,2013-12-04 09:09:00,
2013-12-04 03:15:00,50.0,47.5,29.14,South,181,0.0,0.0,91,0.00,,,0.00,Wunderground v.1.15,2013-12-04 09:15:00,
2013-12-04 03:20:00,49.9,47.4,29.14,South,181,0.0,0.0,91,0.00,,,0.00,Wunderground v.1.15,2013-12-04 09:20:00,
2013-12-04 03:26:00,49.8,47.3,29.14,South,181,0.0,0.0,91,0.00,,,0.00,Wunderground v.1.15,2013-12-04 09:26:00,
2013-12-04 03:31:00,49.7,47.2,29.14,South,181,0.0,0.0,91,0.00,,,0.00,Wunderground v.1.15,2013-12-04 09:31:00,
2013-12-04 03:37:00,49.7,47.2,29.13,South,181,0.0,0.0,91,0.00,,,0.00,Wunderground v.1.15,2013-12-04 09:37:00,
2013-12-04 03:42:00,49.8,47.3,29.13,South,181,0.0,0.0,91,0.00,,,0.00,Wunderground v.1.15,2013-12-04 09:42:00,
2013-12-04 03:48:00,49.9,47.7,29.13,South,181,0.0,0.0,92,0.00,,,0.00,Wunderground v.1.15,2013-12-04 09:48:00,
2013-12-04 03:53:00,50.0,47.8,29.13,South,181,0.0,0.0,92,0.00,,,0.00,Wunderground v.1.15,2013-12-04 09:53:00,
2013-12-04 03:59:00,50.1,47.9,29.13,South,181,0.0,0.0,92,0.00,,,0.00,Wunderground v.1.15,2013-12-04 09:59:00,
2013-12-04 04:05:00,50.1,47.9,29.13,South,181,0.0,0.0,92,0.00,,,0.00,Wunderground v.1.15,2013-12-04 10:05:00,
2013-12-04 04:10:00,50.1,47.9,29.13,South,181,0.0,0.0,92,0.00,,,0.00,Wunderground v.1.15,2013-12-04 10:10:00,
2013-12-04 04:15:00,50.2,48.0,29.13,South,181,0.0,0.0,92,0.00,,,0.00,Wunderground v.1.15,2013-12-04 10:15:00,
2013-12-04 04:21:00,50.4,48.2,29.13,South,181,0.0,0.0,92,0.00,,,0.00,Wunderground v.1.15,2013-12-04 10:21:00,
2013-12-04 04:26:00,50.5,48.3,29.13,South,181,0.0,0.0,92,0.00,,,0.00,Wunderground v.1.15,2013-12-04 10:26:00,
2013-12-04 04:32:00,50.6,48.4,29.13,South,181,0.0,0.0,92,0.00,,,0.00,Wunderground v.1.15,2013-12-04 10:32:00,
2013-12-04 04:37:00,50.6,48.4,29.12,South,181,0.0,0.0,92,0.00,,,0.00,Wunderground v.1.15,2013-12-04 10:37:00,
2013-12-04 04:43:00,50.4,48.2,29.12,South,181,0.0,3.0,92,0.00,,,0.00,Wunderground v.1.15,2013-12-04 10:43:00,
2013-12-04 04:49:00,50.4,47.9,29.12,South,181,0.0,3.0,91,0.00,,,0.00,Wunderground v.1.15,2013-12-04 10:49:00,
2013-12-04 04:55:00,50.3,47.8,29.11,South,181,0.0,3.0,91,0.00,,,0.00,Wunderground v.1.15,2013-12-04 10:55:00,
2013-12-04 05:01:00,50.1,47.9,29.11,South,180,0.0,0.0,92,0.00,,,0.00,Wunderground v.1.15,2013-12-04 11:01:00,
2013-12-04 05:07:00,49.9,47.7,29.10,ESE,120,1.0,5.0,92,0.00,,,0.00,Wunderground v.1.15,2013-12-04 11:07:00,
2013-12-04 05:12:00,49.8,47.6,29.10,ESE,111,2.0,5.0,92,0.00,,,0.00,Wunderground v.1.15,2013-12-04 11:12:00,
2013-12-04 05:18:00,49.7,47.5,29.10,ESE,111,1.0,5.0,92,0.00,,,0.00,Wunderground v.1.15,2013-12-04 11:18:00,
2013-12-04 05:23:00,49.7,47.5,29.10,ESE,111,1.0,6.0,92,0.00,,,0.00,Wunderground v.1.15,2013-12-04 11:23:00,
2013-12-04 05:29:00,49.7,47.5,29.11,ESE,111,1.0,6.0,92,0.00,,,0.00,Wunderground v.1.15,2013-12-04 11:29:00,
2013-12-04 05:34:00,49.8,47.6,29.11,ESE,113,1.0,2.0,92,0.00,,,0.00,Wunderground v.1.15,2013-12-04 11:34:00,
2013-12-04 05:40:00,49.8,47.9,29.11,ESE,113,1.0,1.0,93,0.00,,,0.00,Wunderground v.1.15,2013-12-04 11:40:00,
2013-12-04 05:45:00,49.9,48.0,29.11,ESE,113,1.0,2.0,93,0.00,,,0.00,Wunderground v.1.15,2013-12-04 11:45:00,
2013-12-04 05:51:00,49.9,48.0,29.11,ESE,113,0.0,0.0,93,0.00,,,0.00,Wunderground v.1.15,2013-12-04 11:51:00,
2013-12-04 05:56:00,49.9,48.0,29.11,ESE,113,0.0,6.0,93,0.00,,,0.00,Wunderground v.1.15,2013-12-04 11:56:00,
2013-12-04 06:02:00,50.0,48.1,29.11,ESE,113,0.0,0.0,93,0.00,,,0.00,Wunderground v.1.15,2013-12-04 12:02:00,
2013-12-04 06:07:00,50.1,48.2,29.11,ESE,113,0.0,0.0,93,0.00,,,0.00,Wunderground v.1.15,2013-12-04 12:07:00,
2013-12-04 06:13:00,50.2,48.3,29.11,ESE,113,0.0,0.0,93,0.00,,,0.00,Wunderground v.1.15,2013-12-04 12:13:00,
2013-12-04 06:18:00,50.3,48.4,29.11,ESE,113,0.0,0.0,93,0.00,,,0.00,Wunderground v.1.15,2013-12-04 12:18:00,
2013-12-04 06:24:00,50.4,48.5,29.11,ESE,113,0.0,0.0,93,0.00,,,0.00,Wunderground v.1.15,2013-12-04 12:24:00,
2013-12-04 06:30:00,50.4,48.5,29.11,ESE,113,0.0,0.0,93,0.00,,,0.00,Wunderground v.1.15,2013-12-04 12:30:00,
2013-12-04 06:35:00,50.4,48.5,29.11,ESE,113,0.0,0.0,93,0.00,,,0.00,Wunderground v.1.15,2013-12-04 12:35:00,
2013-12-04 06:40:00,50.5,48.6,29.11,ESE,113,0.0,1.0,93,0.00,,,0.00,Wunderground v.1.15,2013-12-04 12:40:00,
2013-12-04 06:46:00,50.6,48.7,29.11,ESE,115,0.0,4.0,93,0.00,,,0.00,Wunderground v.1.15,2013-12-04 12:46:00,
2013-12-04 06:51:00,50.8,48.8,29.11,ESE,115,0.0,1.0,93,0.00,,,0.00,Wunderground v.1.15,2013-12-04 12:51:00,
2013-12-04 06:56:00,50.9,48.9,29.10,ESE,115,0.0,1.0,93,0.00,,,0.00,Wunderground v.1.15,2013-12-04 12:56:00,
2013-12-04 07:02:00,51.0,49.0,29.10,ESE,114,0.0,0.0,93,0.00,,,0.00,Wunderground v.1.15,2013-12-04 13:02:00,
2013-12-04 07:07:00,51.2,49.2,29.10,ESE,115,0.0,1.0,93,0.00,,,0.00,Wunderground v.1.15,2013-12-04 13:07:00,
2013-12-04 07:13:00,51.3,49.3,29.09,ESE,115,0.0,0.0,93,0.00,,,0.00,Wunderground v.1.15,2013-12-04 13:13:00,
2013-12-04 07:18:00,51.3,49.3,29.10,ESE,115,0.0,4.0,93,0.00,,,0.00,Wunderground v.1.15,2013-12-04 13:18:00,
2013-12-04 07:24:00,51.4,49.4,29.09,ESE,115,0.0,0.0,93,0.00,,,0.00,Wunderground v.1.15,2013-12-04 13:24:00,
2013-12-04 07:29:00,51.4,49.4,29.09,ESE,115,0.0,0.0,93,0.00,,,0.00,Wunderground v.1.15,2013-12-04 13:29:00,
2013-12-04 07:35:00,51.4,49.4,29.09,ESE,115,0.0,0.0,93,0.00,,,0.00,Wunderground v.1.15,2013-12-04 13:35:00,
2013-12-04 07:40:00,51.4,49.4,29.10,ESE,115,0.0,0.0,93,0.00,,,0.00,Wunderground v.1.15,2013-12-04 13:40:00,
2013-12-04 07:45:00,51.3,49.1,29.10,ESE,115,0.0,1.0,92,0.00,,,0.00,Wunderground v.1.15,2013-12-04 13:45:00,
2013-12-04 07:51:00,51.3,49.1,29.10,ESE,115,0.0,0.0,92,0.00,,,0.00,Wunderground v.1.15,2013-12-04 13:51:00,
2013-12-04 07:56:00,51.2,49.0,29.11,ESE,115,0.0,0.0,92,0.00,,,0.00,Wunderground v.1.15,2013-12-04 13:56:00,
2013-12-04 08:02:00,51.2,49.0,29.11,ESE,115,0.0,0.0,92,0.00,,,0.00,Wunderground v.1.15,2013-12-04 14:02:00,
2013-12-04 08:07:00,51.2,49.0,29.10,ESE,115,0.0,0.0,92,0.00,,,0.00,Wunderground v.1.15,2013-12-04 14:07:00,
2013-12-04 08:13:00,51.2,49.0,29.10,ESE,115,0.0,0.0,92,0.00,,,0.00,Wunderground v.1.15,2013-12-04 14:13:00,
2013-12-04 08:18:00,51.1,48.9,29.10,ESE,115,0.0,0.0,92,0.00,,,0.00,Wunderground v.1.15,2013-12-04 14:18:00,
2013-12-04 08:23:00,51.5,49.5,29.10,ESE,117,0.0,5.0,93,0.00,,,0.00,Wunderground v.1.15,2013-12-04 14:23:00,
2013-12-04 08:29:00,51.4,49.2,29.10,ESE,116,1.0,5.0,92,0.00,,,0.00,Wunderground v.1.15,2013-12-04 14:29:00,
2013-12-04 08:34:00,51.6,49.4,29.10,ESE,117,0.0,1.0,92,0.00,,,0.00,Wunderground v.1.15,2013-12-04 14:34:00,
2013-12-04 08:39:00,51.7,49.5,29.09,ESE,116,0.0,2.0,92,0.00,,,0.00,Wunderground v.1.15,2013-12-04 14:39:00,
2013-12-04 08:45:00,51.8,49.5,29.09,ESE,117,0.0,1.0,92,0.00,,,0.00,Wunderground v.1.15,2013-12-04 14:45:00,
2013-12-04 08:50:00,51.6,49.1,29.08,ESE,116,0.0,0.0,91,0.00,,,0.00,Wunderground v.1.15,2013-12-04 14:50:00,
2013-12-04 08:56:00,51.4,48.9,29.08,ESE,114,0.0,2.0,91,0.00,,,0.00,Wunderground v.1.15,2013-12-04 14:56:00,
2013-12-04 09:01:00,51.3,48.8,29.08,ESE,113,1.0,1.0,91,0.00,,,0.00,Wunderground v.1.15,2013-12-04 15:01:00,
2013-12-04 09:06:00,51.2,49.0,29.08,ESE,111,1.0,5.0,92,0.00,,,0.00,Wunderground v.1.15,2013-12-04 15:06:00,
2013-12-04 09:11:00,51.2,48.7,29.07,ESE,107,1.0,1.0,91,0.00,,,0.00,Wunderground v.1.15,2013-12-04 15:11:00,
2013-12-04 09:17:00,51.1,48.9,29.07,ESE,106,1.0,5.0,92,0.00,,,0.00,Wunderground v.1.15,2013-12-04 15:17:00,
2013-12-04 09:22:00,51.2,49.0,29.07,ESE,106,1.0,6.0,92,0.00,,,0.00,Wunderground v.1.15,2013-12-04 15:22:00,
2013-12-04 09:28:00,51.4,49.2,29.07,ESE,106,0.0,6.0,92,0.00,,,0.00,Wunderground v.1.15,2013-12-04 15:28:00,
2013-12-04 09:33:00,51.5,49.3,29.07,ESE,106,0.0,1.0,92,0.00,,,0.00,Wunderground v.1.15,2013-12-04 15:33:00,
2013-12-04 09:38:00,51.7,49.5,29.07,ESE,105,1.0,5.0,92,0.00,,,0.00,Wunderground v.1.15,2013-12-04 15:38:00,
2013-12-04 09:44:00,51.9,49.6,29.06,ESE,105,1.0,1.0,92,0.00,,,0.00,Wunderground v.1.15,2013-12-04 15:44:00,
2013-12-04 09:49:00,52.1,49.8,29.07,ESE,105,0.0,1.0,92,0.00,,,0.00,Wunderground v.1.15,2013-12-04 15:49:00,
2013-12-04 09:54:00,52.4,49.8,29.07,ESE,106,1.0,1.0,91,0.00,,,0.00,Wunderground v.1.15,2013-12-04 15:54:00,
2013-12-04 10:00:00,52.5,49.9,29.07,ESE,106,1.0,1.0,91,0.00,,,0.00,Wunderground v.1.15,2013-12-04 16:00:00,
2013-12-04 10:06:00,52.7,50.4,29.08,ESE,106,0.0,1.0,92,0.00,,,0.00,Wunderground v.1.15,2013-12-04 16:06:00,
2013-12-04 10:12:00,52.9,50.6,29.08,ESE,106,0.0,0.0,92,0.00,,,0.00,Wunderground v.1.15,2013-12-04 16:12:00,
2013-12-04 10:17:00,53.2,50.9,29.08,ESE,106,0.0,0.0,92,0.00,,,0.00,Wunderground v.1.15,2013-12-04 16:17:00,
2013-12-04 10:22:00,53.5,50.9,29.08,ESE,106,0.0,0.0,91,0.00,,,0.00,Wunderground v.1.15,2013-12-04 16:22:00,
2013-12-04 10:27:00,53.9,51.3,29.08,ESE,106,0.0,0.0,91,0.00,,,0.00,Wunderground v.1.15,2013-12-04 16:27:00,
2013-12-04 10:33:00,54.4,51.8,29.08,South,170,1.0,8.0,91,0.00,,,0.00,Wunderground v.1.15,2013-12-04 16:33:00,
2013-12-04 10:38:00,55.1,51.9,29.08,SSE,157,3.0,8.0,89,0.00,,,0.00,Wunderground v.1.15,2013-12-04 16:38:00,
2013-12-04 10:43:00,55.4,52.2,29.08,SSE,162,2.0,6.0,89,0.00,,,0.00,Wunderground v.1.15,2013-12-04 16:43:00,
2013-12-04 10:49:00,55.9,52.4,29.08,SSE,161,1.0,6.0,88,0.00,,,0.00,Wunderground v.1.15,2013-12-04 16:49:00,
2013-12-04 10:54:00,55.7,51.9,29.07,SSE,159,1.0,6.0,87,0.00,,,0.00,Wunderground v.1.15,2013-12-04 16:54:00,
2013-12-04 11:00:00,56.0,51.9,29.07,SSE,160,3.0,3.0,86,0.00,,,0.00,Wunderground v.1.15,2013-12-04 17:00:00,
2013-12-04 11:06:00,56.2,52.4,29.06,South,170,3.0,5.0,87,0.00,,,0.00,Wunderground v.1.15,2013-12-04 17:06:00,
2013-12-04 11:11:00,56.7,51.6,29.06,South,171,3.0,5.0,83,0.00,,,0.00,Wunderground v.1.15,2013-12-04 17:11:00,
2013-12-04 11:17:00,56.7,51.9,29.06,South,183,5.0,9.0,84,0.00,,,0.00,Wunderground v.1.15,2013-12-04 17:17:00,
2013-12-04 11:23:00,56.8,52.0,29.05,SSE,159,6.0,9.0,84,0.00,,,0.00,Wunderground v.1.15,2013-12-04 17:23:00,
2013-12-04 11:28:00,56.9,52.1,29.04,SE,146,5.0,9.0,84,0.00,,,0.00,Wunderground v.1.15,2013-12-04 17:28:00,
2013-12-04 11:34:00,57.1,52.3,29.03,SSE,148,6.0,12.0,84,0.00,,,0.00,Wunderground v.1.15,2013-12-04 17:34:00,
2013-12-04 11:39:00,57.1,52.3,29.02,SSE,157,6.0,12.0,84,0.00,,,0.00,Wunderground v.1.15,2013-12-04 17:39:00,
2013-12-04 11:45:00,57.5,52.7,29.01,SSE,155,3.0,6.0,84,0.00,,,0.00,Wunderground v.1.15,2013-12-04 17:45:00,
2013-12-04 11:51:00,58.0,52.9,29.01,South,170,2.0,2.0,83,0.00,,,0.00,Wunderground v.1.15,2013-12-04 17:51:00,
2013-12-04 11:56:00,58.2,52.4,29.01,South,173,4.0,10.0,81,0.00,,,0.00,Wunderground v.1.15,2013-12-04 17:56:00,
2013-12-04 12:02:00,57.9,52.1,29.01,South,169,7.0,9.0,81,0.00,,,0.00,Wunderground v.1.15,2013-12-04 18:02:00,
2013-12-04 12:07:00,57.9,52.1,29.01,SSE,165,8.0,12.0,81,0.00,,,0.00,Wunderground v.1.15,2013-12-04 18:07:00,
2013-12-04 12:12:00,57.9,52.4,29.00,South,184,7.0,8.0,82,0.00,,,0.00,Wunderground v.1.15,2013-12-04 18:12:00,
2013-12-04 12:18:00,58.1,52.6,29.00,SSE,165,3.0,9.0,82,0.00,,,0.00,Wunderground v.1.15,2013-12-04 18:18:00,
2013-12-04 12:23:00,58.8,52.6,28.99,SSE,168,1.0,2.0,80,0.00,,,0.00,Wunderground v.1.15,2013-12-04 18:23:00,
2013-12-04 12:29:00,59.5,53.0,28.99,South,186,2.0,5.0,79,0.00,,,0.00,Wunderground v.1.15,2013-12-04 18:29:00,
2013-12-04 12:34:00,59.8,52.6,28.99,SSE,152,3.0,10.0,77,0.00,,,0.00,Wunderground v.1.15,2013-12-04 18:34:00,
2013-12-04 12:39:00,59.6,52.4,29.00,SSE,167,3.0,10.0,77,0.00,,,0.00,Wunderground v.1.15,2013-12-04 18:39:00,
2013-12-04 12:45:00,59.6,52.4,29.00,South,178,4.0,10.0,77,0.00,,,0.00,Wunderground v.1.15,2013-12-04 18:45:00,
2013-12-04 12:50:00,59.6,52.4,29.00,South,177,6.0,6.0,77,0.00,,,0.00,Wunderground v.1.15,2013-12-04 18:50:00,
2013-12-04 12:56:00,59.8,52.2,29.00,SSW,208,6.0,9.0,76,0.00,,,0.00,Wunderground v.1.15,2013-12-04 18:56:00,
2013-12-04 13:01:00,60.2,-99.9,29.00,SSW,194,6.0,6.0,255,0.00,,,0.00,Wunderground v.1.15,2013-12-04 19:01:00,
2013-12-04 13:06:00,-999.9,-99.9,29.00,SSW,194,4.0,6.0,76,0.00,,,0.00,Wunderground v.1.15,2013-12-04 19:06:00,
2013-12-04 13:12:00,60.2,52.2,29.00,SW,226,2.0,7.0,75,0.00,,,0.00,Wunderground v.1.15,2013-12-04 19:12:00,
2013-12-04 13:17:00,60.4,-99.9,29.00,SW,229,2.0,8.0,255,0.00,,,0.00,Wunderground v.1.15,2013-12-04 19:17:00,
2013-12-04 13:23:00,60.7,52.0,29.01,SSW,209,3.0,7.0,73,0.00,,,0.00,Wunderground v.1.15,2013-12-04 19:23:00,
2013-12-04 13:29:00,60.7,52.4,29.00,SW,232,3.0,7.0,74,0.00,,,0.00,Wunderground v.1.15,2013-12-04 19:29:00,
2013-12-04 13:34:00,60.7,52.4,29.00,SW,224,3.0,3.0,74,0.00,,,0.00,Wunderground v.1.15,2013-12-04 19:34:00,
2013-12-04 13:40:00,-999.9,-99.9,29.00,SSW,200,2.0,2.0,73,0.00,,,0.00,Wunderground v.1.15,2013-12-04 19:40:00,
2013-12-04 13:45:00,61.0,52.3,29.01,SSW,207,1.0,2.0,73,0.00,,,0.00,Wunderground v.1.15,2013-12-04 19:45:00,
2013-12-04 13:50:00,60.9,51.8,29.00,SSW,200,2.0,5.0,72,0.00,,,0.00,Wunderground v.1.15,2013-12-04 19:50:00,
2013-12-04 13:56:00,61.2,51.7,29.01,SSW,202,7.0,13.0,71,0.00,,,0.00,Wunderground v.1.15,2013-12-04 19:56:00,
2013-12-04 14:01:00,61.4,51.1,29.01,SSW,213,8.0,8.0,69,0.00,,,0.00,Wunderground v.1.15,2013-12-04 20:01:00,
2013-12-04 14:07:00,61.7,51.0,29.01,WSW,251,7.0,13.0,68,0.00,,,0.00,Wunderground v.1.15,2013-12-04 20:07:00,
2013-12-04 14:12:00,62.0,51.3,29.01,WSW,248,6.0,7.0,68,0.00,,,0.00,Wunderground v.1.15,2013-12-04 20:12:00,
2013-12-04 14:18:00,62.3,50.8,29.02,South,182,8.0,19.0,66,0.00,,,0.00,Wunderground v.1.15,2013-12-04 20:18:00,
2013-12-04 14:23:00,62.2,50.3,29.02,SW,224,10.0,11.0,65,0.00,,,0.00,Wunderground v.1.15,2013-12-04 20:23:00,
2013-12-04 14:28:00,61.9,50.4,29.02,WSW,251,8.0,14.0,66,0.00,,,0.00,Wunderground v.1.15,2013-12-04 20:28:00,
2013-12-04 14:34:00,61.5,50.0,29.03,WSW,241,8.0,12.0,66,0.00,,,0.00,Wunderground v.1.15,2013-12-04 20:34:00,
2013-12-04 14:39:00,61.1,50.1,29.03,SW,234,7.0,12.0,67,0.00,,,0.00,Wunderground v.1.15,2013-12-04 20:39:00,
2013-12-04 14:45:00,60.5,49.5,29.04,SW,231,7.0,17.0,67,0.00,,,0.00,Wunderground v.1.15,2013-12-04 20:45:00,
2013-12-04 14:50:00,60.1,49.5,29.04,SSW,206,8.0,13.0,68,0.00,,,0.00,Wunderground v.1.15,2013-12-04 20:50:00,
2013-12-04 14:55:00,59.8,49.2,29.05,West,259,8.0,15.0,68,0.00,,,0.00,Wunderground v.1.15,2013-12-04 20:55:00,
2013-12-04 15:00:00,59.4,49.2,29.05,WSW,242,10.0,10.0,69,0.00,,,0.00,Wunderground v.1.15,2013-12-04 21:00:00,
2013-12-04 15:06:00,59.0,48.8,29.05,SSW,202,10.0,13.0,69,0.00,,,0.00,Wunderground v.1.15,2013-12-04 21:06:00,
2013-12-04 15:12:00,58.8,48.3,29.05,WSW,247,9.0,23.0,68,0.00,,,0.00,Wunderground v.1.15,2013-12-04 21:12:00,
2013-12-04 15:17:00,58.4,47.5,29.06,SW,217,10.0,23.0,67,0.00,,,0.00,Wunderground v.1.15,2013-12-04 21:17:00,
2013-12-04 15:23:00,58.1,47.6,29.06,WSW,237,10.0,20.0,68,0.00,,,0.00,Wunderground v.1.15,2013-12-04 21:23:00,
2013-12-04 15:28:00,59.4,49.2,29.07,WSW,250,9.0,20.0,69,0.00,,,0.00,Wunderground v.1.15,2013-12-04 21:28:00,
2013-12-04 15:33:00,57.8,48.1,29.07,SW,229,9.0,11.0,70,0.00,,,0.00,Wunderground v.1.15,2013-12-04 21:33:00,
2013-12-04 15:39:00,57.5,48.2,29.07,South,190,9.0,17.0,71,0.00,,,0.00,Wunderground v.1.15,2013-12-04 21:39:00,
2013-12-04 15:44:00,57.7,48.7,29.08,SW,231,8.0,10.0,72,0.00,,,0.00,Wunderground v.1.15,2013-12-04 21:44:00,
2013-12-04 15:49:00,56.8,48.2,29.08,SW,229,7.0,12.0,73,0.00,,,0.00,Wunderground v.1.15,2013-12-04 21:49:00,
2013-12-04 15:55:00,56.4,48.2,29.08,SW,218,7.0,11.0,74,0.00,,,0.00,Wunderground v.1.15,2013-12-04 21:55:00,
2013-12-04 16:00:00,56.2,48.4,29.09,West,262,7.0,7.0,75,0.00,,,0.00,Wunderground v.1.15,2013-12-04 22:00:00,
2013-12-04 16:06:00,55.8,48.0,29.09,SW,221,8.0,13.0,75,0.00,,,0.00,Wunderground v.1.15,2013-12-04 22:06:00,
2013-12-04 16:11:00,55.6,48.2,29.10,WSW,243,7.0,12.0,76,0.00,,,0.00,Wunderground v.1.15,2013-12-04 22:11:00,
2013-12-04 16:16:00,55.2,48.1,29.10,SW,220,8.0,13.0,77,0.00,,,0.00,Wunderground v.1.15,2013-12-04 22:16:00,
2013-12-04 16:22:00,54.7,48.0,29.11,WSW,255,8.0,9.0,78,0.00,,,0.00,Wunderground v.1.15,2013-12-04 22:22:00,
2013-12-04 16:27:00,54.2,47.5,29.12,WSW,245,7.0,19.0,78,0.00,,,0.00,Wunderground v.1.15,2013-12-04 22:27:00,
2013-12-04 16:33:00,52.7,47.0,29.13,WSW,252,6.0,7.0,81,0.00,,,0.00,Wunderground v.1.15,2013-12-04 22:33:00,
2013-12-04 16:38:00,51.8,46.2,29.14,SSW,205,6.0,12.0,81,0.00,,,0.00,Wunderground v.1.15,2013-12-04 22:38:00,
2013-12-04 16:43:00,50.9,45.6,29.14,SW,227,7.0,23.0,82,0.00,,,0.00,Wunderground v.1.15,2013-12-04 22:43:00,
2013-12-04 16:49:00,50.2,45.2,29.15,WSW,257,7.0,23.0,83,0.00,,,0.00,Wunderground v.1.15,2013-12-04 22:49:00,
2013-12-04 16:54:00,49.4,44.1,29.15,SW,219,7.0,12.0,82,0.00,,,0.00,Wunderground v.1.15,2013-12-04 22:54:00,
2013-12-04 16:59:00,48.8,43.2,29.16,West,276,9.0,14.0,81,0.00,,,0.00,Wunderground v.1.15,2013-12-04 22:59:00,
2013-12-04 17:05:00,48.4,43.2,29.16,SW,230,6.0,13.0,82,0.00,,,0.00,Wunderground v.1.15,2013-12-04 23:05:00,
2013-12-04 17:10:00,47.9,42.7,29.16,SSW,213,5.0,5.0,82,0.00,,,0.00,Wunderground v.1.15,2013-12-04 23:10:00,
2013-12-04 17:16:00,47.6,42.7,29.17,SW,219,5.0,12.0,83,0.00,,,0.00,Wunderground v.1.15,2013-12-04 23:16:00,
2013-12-04 17:21:00,47.2,42.3,29.17,West,260,5.0,5.0,83,0.00,,,0.00,Wunderground v.1.15,2013-12-04 23:21:00,
2013-12-04 17:27:00,46.9,42.0,29.17,SW,235,5.0,8.0,83,0.00,,,0.00,Wunderground v.1.15,2013-12-04 23:27:00,
2013-12-04 17:33:00,46.5,41.6,29.18,SSW,209,5.0,15.0,83,0.00,,,0.00,Wunderground v.1.15,2013-12-04 23:33:00,
2013-12-04 17:38:00,46.0,41.1,29.18,West,263,6.0,18.0,83,0.00,,,0.00,Wunderground v.1.15,2013-12-04 23:38:00,
2013-12-04 17:44:00,45.4,40.8,29.19,West,259,5.0,6.0,84,0.00,,,0.00,Wunderground v.1.15,2013-12-04 23:44:00,
2013-12-04 17:49:00,45.0,40.5,29.20,SW,223,4.0,8.0,84,0.00,,,0.00,Wunderground v.1.15,2013-12-04 23:49:00,
2013-12-04 17:54:00,44.6,40.1,29.21,WSW,248,3.0,4.0,84,0.00,,,0.00,Wunderground v.1.15,2013-12-04 23:54:00,
2013-12-04 18:00:00,44.2,39.1,29.22,SSW,213,4.0,5.0,82,0.00,,,0.00,Wunderground v.1.15,2013-12-05 00:00:00,
2013-12-04 18:06:00,43.7,38.6,29.21,WSW,246,6.0,10.0,82,0.00,,,0.00,Wunderground v.1.15,2013-12-05 00:06:00,
2013-12-04 18:12:00,43.3,38.2,29.22,West,276,5.0,9.0,82,0.00,,,0.00,Wunderground v.1.15,2013-12-05 00:12:00,
2013-12-04 18:17:00,42.8,37.1,29.23,SW,227,7.0,15.0,80,0.00,,,0.00,Wunderground v.1.15,2013-12-05 00:17:00,
2013-12-04 18:22:00,42.4,36.7,29.23,WSW,257,8.0,10.0,80,0.00,,,0.00,Wunderground v.1.15,2013-12-05 00:22:00,
2013-12-04 18:28:00,42.0,36.6,29.24,West,277,5.0,10.0,81,0.00,,,0.00,Wunderground v.1.15,2013-12-05 00:28:00,
2013-12-04 18:33:00,41.7,36.0,29.23,West,265,5.0,10.0,80,0.00,,,0.00,Wunderground v.1.15,2013-12-05 00:33:00,
2013-12-04 18:38:00,41.4,35.7,29.23,West,276,5.0,10.0,80,0.00,,,0.00,Wunderground v.1.15,2013-12-05 00:38:00,
2013-12-04 18:44:00,41.3,35.3,29.24,WSW,257,4.0,6.0,79,0.00,,,0.00,Wunderground v.1.15,2013-12-05 00:44:00,
2013-12-04 18:49:00,40.8,34.8,29.23,WSW,256,4.0,6.0,79,0.00,,,0.00,Wunderground v.1.15,2013-12-05 00:49:00,
2013-12-04 18:55:00,40.5,34.8,29.24,West,277,4.0,4.0,80,0.00,,,0.00,Wunderground v.1.15,2013-12-05 00:55:00,
2013-12-04 19:00:00,40.1,34.7,29.24,West,270,5.0,5.0,81,0.00,,,0.00,Wunderground v.1.15,2013-12-05 01:00:00,
2013-12-04 19:06:00,39.7,34.7,29.25,West,276,6.0,10.0,82,0.00,,,0.00,Wunderground v.1.15,2013-12-05 01:06:00,
2013-12-04 19:11:00,39.3,34.3,29.26,WSW,249,5.0,5.0,82,0.00,,,0.00,Wunderground v.1.15,2013-12-05 01:11:00,
2013-12-04 19:17:00,39.0,34.0,29.25,SW,215,4.0,13.0,82,0.00,,,0.00,Wunderground v.1.15,2013-12-05 01:17:00,
2013-12-04 19:22:00,38.7,33.7,29.25,West,267,3.0,4.0,82,0.00,,,0.00,Wunderground v.1.15,2013-12-05 01:22:00,
2013-12-04 19:28:00,38.4,33.4,29.26,WSW,239,4.0,7.0,82,0.00,,,0.00,Wunderground v.1.15,2013-12-05 01:28:00,
2013-12-04 19:34:00,38.2,33.2,29.27,WSW,242,5.0,11.0,82,0.00,,,0.00,Wunderground v.1.15,2013-12-05 01:34:00,
2013-12-04 19:40:00,38.0,32.7,29.26,WNW,296,4.0,12.0,81,0.00,,,0.00,Wunderground v.1.15,2013-12-05 01:40:00,
2013-12-04 19:46:00,37.8,32.2,29.26,WSW,245,4.0,12.0,80,0.00,,,0.00,Wunderground v.1.15,2013-12-05 01:46:00,
2013-12-04 19:51:00,37.4,31.8,29.28,SW,234,4.0,4.0,80,0.00,,,0.00,Wunderground v.1.15,2013-12-05 01:51:00,
2013-12-04 19:57:00,37.3,31.7,29.27,WSW,248,5.0,12.0,80,0.00,,,0.00,Wunderground v.1.15,2013-12-05 01:57:00,
2013-12-04 20:02:00,37.1,31.5,29.28,WSW,249,5.0,6.0,80,0.00,,,0.00,Wunderground v.1.15,2013-12-05 02:02:00,
2013-12-04 20:08:00,36.8,31.2,29.29,SW,235,6.0,6.0,80,0.00,,,0.00,Wunderground v.1.15,2013-12-05 02:08:00,
2013-12-04 20:13:00,36.5,31.2,29.29,WSW,254,6.0,7.0,81,0.00,,,0.00,Wunderground v.1.15,2013-12-05 02:13:00,
2013-12-04 20:19:00,36.2,30.6,29.29,WSW,242,5.0,11.0,80,0.00,,,0.00,Wunderground v.1.15,2013-12-05 02:19:00,
2013-12-04 20:24:00,36.0,-99.9,29.29,WSW,252,5.0,11.0,255,0.00,,,0.00,Wunderground v.1.15,2013-12-05 02:24:00,
2013-12-04 20:29:00,35.8,30.2,29.30,West,260,4.0,12.0,80,0.00,,,0.00,Wunderground v.1.15,2013-12-05 02:29:00,
2013-12-04 20:35:00,35.7,30.1,29.31,West,270,5.0,18.0,80,0.00,,,0.00,Wunderground v.1.15,2013-12-05 02:35:00,
2013-12-04 20:40:00,35.5,29.9,29.32,West,265,5.0,5.0,80,0.00,,,0.00,Wunderground v.1.15,2013-12-05 02:40:00,
2013-12-04 20:45:00,35.4,29.8,29.31,West,267,6.0,10.0,80,0.00,,,0.00,Wunderground v.1.15,2013-12-05 02:45:00,
2013-12-04 20:51:00,35.3,29.7,29.33,SW,217,5.0,7.0,80,0.00,,,0.00,Wunderground v.1.15,2013-12-05 02:51:00,
2013-12-04 20:57:00,35.0,29.5,29.33,SW,228,5.0,12.0,80,0.00,,,0.00,Wunderground v.1.15,2013-12-05 02:57:00,
2013-12-04 21:03:00,35.0,29.5,29.33,WSW,255,4.0,5.0,80,0.00,,,0.00,Wunderground v.1.15,2013-12-05 03:03:00,
2013-12-04 21:08:00,34.7,29.2,29.34,WSW,246,4.0,8.0,80,0.00,,,0.00,Wunderground v.1.15,2013-12-05 03:08:00,
2013-12-04 21:14:00,34.6,29.1,29.34,WSW,250,4.0,5.0,80,0.00,,,0.00,Wunderground v.1.15,2013-12-05 03:14:00,
2013-12-04 21:19:00,34.4,28.2,29.35,West,277,3.0,10.0,78,0.00,,,0.00,Wunderground v.1.15,2013-12-05 03:19:00,
2013-12-04 21:25:00,33.8,28.0,29.35,WSW,248,5.0,13.0,79,0.00,,,0.00,Wunderground v.1.15,2013-12-05 03:25:00,
2013-12-04 21:31:00,33.5,27.7,29.34,WSW,237,5.0,6.0,79,0.00,,,0.00,Wunderground v.1.15,2013-12-05 03:31:00,
2013-12-04 21:36:00,33.6,27.8,29.35,West,278,6.0,11.0,79,0.00,,,0.00,Wunderground v.1.15,2013-12-05 03:36:00,
2013-12-04 21:42:00,33.3,27.8,29.34,NW,315,7.0,7.0,80,0.00,,,0.00,Wunderground v.1.15,2013-12-05 03:42:00,
2013-12-04 21:47:00,-17.8,-22.6,29.35,SW,231,5.0,7.0,78,0.00,,,0.00,Wunderground v.1.15,2013-12-05 03:47:00,
2013-12-04 21:53:00,32.8,27.0,29.36,SW,233,3.0,7.0,79,0.00,,,0.00,Wunderground v.1.15,2013-12-05 03:53:00,
2013-12-04 21:58:00,32.6,27.4,29.35,WSW,256,2.0,11.0,81,0.00,,,0.00,Wunderground v.1.15,2013-12-05 03:58:00,
2013-12-04 22:04:00,32.2,26.7,29.36,West,268,5.0,8.0,80,0.00,,,0.00,Wunderground v.1.15,2013-12-05 04:04:00,
2013-12-04 22:10:00,32.1,26.6,29.37,West,277,5.0,5.0,80,0.00,,,0.00,Wunderground v.1.15,2013-12-05 04:10:00,
2013-12-04 22:15:00,31.7,25.9,29.36,WSW,240,5.0,13.0,79,0.00,,,0.00,Wunderground v.1.15,2013-12-05 04:15:00,
2013-12-04 22:21:00,31.4,25.6,29.36,West,278,5.0,7.0,79,0.00,,,0.00,Wunderground v.1.15,2013-12-05 04:21:00,
2013-12-04 22:27:00,31.3,25.8,29.36,WSW,256,4.0,8.0,80,0.00,,,0.00,Wunderground v.1.15,2013-12-05 04:27:00,
2013-12-04 22:32:00,31.2,25.7,29.37,WSW,256,3.0,5.0,80,0.00,,,0.00,Wunderground v.1.15,2013-12-05 04:32:00,
2013-12-04 22:38:00,30.9,25.2,29.37,WSW,244,2.0,6.0,79,0.00,,,0.00,Wunderground v.1.15,2013-12-05 04:38:00,
2013-12-04 22:43:00,30.7,25.0,29.37,West,274,4.0,11.0,79,0.00,,,0.00,Wunderground v.1.15,2013-12-05 04:43:00,
2013-12-04 22:49:00,30.5,24.8,29.38,West,279,5.0,11.0,79,0.00,,,0.00,Wunderground v.1.15,2013-12-05 04:49:00,
2013-12-04 22:54:00,30.8,24.7,29.38,SW,218,4.0,5.0,78,0.00,,,0.00,Wunderground v.1.15,2013-12-05 04:54:00,
2013-12-04 23:00:00,30.2,24.5,29.38,WSW,248,4.0,4.0,79,0.00,,,0.00,Wunderground v.1.15,2013-12-05 05:00:00,
2013-12-04 23:01:00,30.1,24.4,29.38,WSW,256,4.0,4.0,79,0.00,,,0.00,Wunderground v.1.15,2013-12-05 05:01:00,
2013-12-04 23:03:00,30.6,24.9,29.39,SW,223,4.0,4.0,79,0.00,,,0.00,Wunderground v.1.15,2013-12-05 05:03:00,
2013-12-04 23:04:00,30.1,24.4,29.38,WSW,252,4.0,4.0,79,0.00,,,0.00,Wunderground v.1.15,2013-12-05 05:04:00,
2013-12-04 23:06:00,30.0,24.6,29.39,SW,215,4.0,4.0,80,0.00,,,0.00,Wunderground v.1.15,2013-12-05 05:06:00,
2013-12-04 23:07:00,30.0,24.6,29.39,West,271,3.0,7.0,80,0.00,,,0.00,Wunderground v.1.15,2013-12-05 05:07:00,
2013-12-04 23:12:00,29.9,24.2,29.39,SW,223,5.0,6.0,79,0.00,,,0.00,Wunderground v.1.15,2013-12-05 05:12:00,
2013-12-04 23:17:00,29.9,24.2,29.40,West,279,6.0,7.0,79,0.00,,,0.00,Wunderground v.1.15,2013-12-05 05:17:00,
2013-12-04 23:22:00,29.7,24.0,29.40,West,265,5.0,12.0,79,0.00,,,0.00,Wunderground v.1.15,2013-12-05 05:22:00,
2013-12-04 23:28:00,29.6,23.9,29.40,SSW,210,4.0,12.0,79,0.00,,,0.00,Wunderground v.1.15,2013-12-05 05:28:00,
2013-12-04 23:33:00,29.9,24.2,29.40,WSW,241,4.0,5.0,79,0.00,,,0.00,Wunderground v.1.15,2013-12-05 05:33:00,
2013-12-04 23:39:00,29.5,23.8,29.41,WNW,286,6.0,14.0,79,0.00,,,0.00,Wunderground v.1.15,2013-12-05 05:39:00,
2013-12-04 23:44:00,29.4,23.7,29.40,WSW,244,4.0,11.0,79,0.00,,,0.00,Wunderground v.1.15,2013-12-05 05:44:00,
2013-12-04 23:50:00,29.7,24.0,29.41,SW,236,3.0,7.0,79,0.00,,,0.00,Wunderground v.1.15,2013-12-05 05:50:00,
2013-12-04 23:56:00,29.3,23.6,29.40,WSW,254,4.0,7.0,79,0.00,,,0.00,Wunderground v.1.15,2013-12-05 05:56:00,